Weather in Uil

Kazakhstan     49°04′27″N   54°39′56″E
temp.,
°C
wind,
m/s
gust,
m/s
humid.,
%
clouds,
%
prec.,
mm/h
press.,
hPa
HPBL,
m
19 june, sat
sat1923:00+21nne612370 0.0 1019401
02:00+18nne612510 0.0 1019394
05:00+16nne510590 0.0 1020267
08:00+19ene67451 0.0 1022374
11:00+26e44266 0.0 10221422
14:00+28ne442229 0.0 10222283
17:00+29nne44210 0.0 10212262
20:00+27nne55265 0.0 1021868
20 june, sun
sun2023:00+22ne48360 0.0 1022150
02:00+20ne45430 0.0 102291
05:00+19ne33490 0.0 102331
08:00+23ne22410 0.0 1023253
11:00+27nw23320 0.0 10231263
14:00+31nw56240 0.0 10212041
17:00+32nnw67210 0.0 10202379
20:00+30n57270 0.0 1019771
21 june, mon
mon2123:00+25n34400 0.0 102054
02:00+24n46490 0.0 1020109
05:00+22ne49660 0.0 1020208
08:00+25ne68520 0.0 1021544
11:00+29ne56290 0.0 10211226
14:00+32nne66220 0.0 10211923
17:00+32nne77200 0.0 10202164
20:00+30ne68230 0.0 1020901
22 june, tue
tue2223:00+25ne48330 0.0 1021150
02:00+22ne47390 0.0 1021121
05:00+21ene36450 0.0 102293
08:00+24ese23360 0.0 1023247
11:00+29e22250 0.0 10231206
14:00+32ne12240 0.0 10222118
17:00+33nne23255 0.0 10202743
20:00+33nne232729 0.0 10202813
23 june, wed
wed2323:00+30nne463375 0.0 1020205
02:00+27nne333934 0.0 102025
05:00+26n334312 0.0 102050
08:00+29n34400 0.0 1020279
11:00+33n45305 0.0 10202784
14:00+35n652211 0.0 10183544
17:00+36n662013 0.0 10173515
20:00+34n56233 0.0 1017706